#timestamp,LO_Frequency,Hit,StdDev 
1691406015.3,286047001.8,P
1691406035.1,286047001.9,P
1691406055.8,286047002.2,P
1691406075.7,286047004.4,Y
1691406095.5,286047000.2,P
1691406115.3,286046999.8,N
1691406135.2,286047000.0,N
1691406155.0,286047000.3,N
1691406155.9,286047000.3,N
1691406175.7,286047000.5,N
1691406195.6,286047001.1,N
1691406215.4,286047000.2,N
1691406235.2,286047000.8,N
1691406255.1,286047000.6,N
1691406256.0,286047000.6,N
1691406275.8,286047000.5,N
1691406295.6,286046999.7,N
1691406315.5,286046998.1,Y
1691406335.3,286046998.9,P
1691406355.1,286046999.5,N
1691406375.9,286046999.6,N
1691406395.7,286046997.0,Y
1691406415.5,286046999.3,P
1691406435.4,286046998.9,P
1691406455.2,286046998.3,P
1691406475.0,286046999.4,N
1691406475.9,286046999.4,N
1691406495.8,286046999.5,N
1691406515.6,286046999.2,N
1691406535.4,286047000.8,N
1691406555.3,286046998.8,N
1691406575.1,286046999.1,N
1691406595.9,286046997.6,Y
1691406615.7,286046997.8,P
1691406635.5,286046997.3,P
1691406655.4,286046996.7,P
1691406675.2,286046995.3,Y
1691406695.0,286046999.1,P
1691406695.9,286046999.1,N
1691406715.8,286046998.6,N
1691406735.6,286047000.9,N
1691406755.4,286046998.6,N
1691406775.3,286047000.3,N
1691406795.1,286047000.9,N
1691406796.0,286047000.9,N
1691406815.8,286046999.9,N
1691406835.7,286046999.9,N
1691406855.5,286047000.2,N
1691406875.3,286046998.3,N
1691406895.2,286046998.1,N
1691406915.9,286047001.0,N
1691406935.7,286047000.2,N
1691406955.6,286047000.8,N
1691406975.4,286047001.1,N
1691406995.2,286046998.3,N
1691407015.1,286047001.1,N
1691407016.0,286047001.1,N
1691407035.8,286047001.1,N
1691407055.6,286046998.3,N
1691407075.5,286046998.5,N
1691407095.3,286047000.4,N
1691407115.1,286047000.4,N
1691407135.9,286047000.5,N
1691407155.7,286046999.5,N
1691407175.5,286046996.6,Y
1691407195.4,286047001.0,P
1691407215.2,286046998.7,N
1691407235.0,286046998.8,N
1691407235.9,286046998.8,N
1691407255.8,286046998.9,N
1691407275.6,286046998.6,N
1691407295.4,286046998.4,N
1691407315.3,286046999.3,N
1691407335.1,286046997.0,Y
1691407355.8,286046996.7,P
1691407375.7,286046999.4,N
1691407395.5,286047000.7,N
1691407415.3,286046999.3,N
1691407435.2,286047001.2,N
1691407455.9,286047000.7,N
1691407475.7,286047001.2,N
1691407495.6,286046998.6,N
1691407515.4,286046999.1,N
1691407535.2,286046999.2,N
1691407555.1,286046998.2,N
1691407556.0,286046998.2,N
1691407575.8,286046998.2,N
1691407595.6,286046997.0,N
1691407615.5,286046996.9,N
1691407635.3,286046996.6,N
1691407655.1,286046997.6,N
1691407675.9,286046996.9,N
1691407695.7,286046999.6,N
1691407715.5,286046999.6,N
1691407735.4,286046996.7,N
1691407755.2,286046996.9,N
1691407775.0,286046999.4,N
1691407775.9,286046999.4,N
1691407795.8,286046999.5,N
1691407815.6,286046996.9,N
1691407835.4,286046997.3,N
1691407855.3,286046996.8,N
1691407875.1,286046996.5,N
1691407876.0,286046996.5,N
1691407895.8,286046996.5,N
1691407915.7,286046999.1,N
1691407935.5,286046996.5,N
1691407955.3,286046997.1,N
1691407975.2,286046996.7,N
1691407995.9,286046999.0,N
1691408015.7,286046996.9,N
1691408035.6,286046996.5,Y
1691408055.4,286046998.6,P
1691408075.2,286047000.4,N
1691408095.1,286046999.9,N
1691408096.0,286046999.9,N
1691408115.8,286047000.6,N
1691408135.6,286047000.8,N
1691408155.5,286046998.3,N
1691408175.3,286046998.2,N
1691408195.1,286047001.0,N
1691408215.9,286046998.2,N
1691408235.7,286047000.8,N
1691408255.5,286047000.8,N
1691408275.4,286047001.2,N
1691408295.2,286046999.2,N
1691408315.0,286046999.4,N
1691408315.9,286046999.4,N
1691408335.8,286046999.6,N
1691408355.6,286046999.6,N
1691408375.4,286046998.3,N
1691408395.3,286046998.4,N
1691408415.1,286047001.1,N
1691408416.0,286047001.1,N
1691408435.8,286046998.9,N
1691408455.7,286046998.6,N
1691408475.5,286046998.7,N
1691408495.3,286046998.2,N
1691408515.2,286046998.1,N
1691408535.9,286046998.2,N
1691408555.7,286047000.8,N
1691408575.6,286047000.2,N
1691408595.4,286047001.1,N
1691408615.2,286047000.9,N
1691408635.1,286047002.7,N
1691408636.0,286047002.7,N
1691408655.8,286047002.1,N
1691408675.6,286047002.2,N
1691408695.5,286047002.1,N
1691408715.3,286047001.8,N
1691408735.1,286047001.6,N
1691408755.9,286047004.4,N
1691408775.7,286047003.9,N
1691408795.5,286047004.0,N
1691408815.4,286047004.0,N
1691408835.2,286047003.8,N
1691408855.0,286047001.8,N
1691408855.9,286047001.8,N
1691408875.8,286047002.0,N
1691408895.6,286047001.1,N
1691408915.4,286047001.6,N
1691408935.3,286047001.7,N
1691408955.1,286047001.7,N
1691408956.0,286047001.7,N
1691408975.8,286047001.4,N
1691408995.7,286047004.4,N
1691409015.5,286047001.8,N
1691409035.3,286047001.7,N
1691409055.2,286047002.0,N
1691409075.9,286047003.1,N
1691409095.7,286047004.1,Y
1691409115.6,286047002.7,P
1691409135.4,286046999.8,N
1691409155.2,286047003.5,N
1691409175.1,286047003.9,N
1691409176.0,286047003.9,N
1691409195.8,286047004.4,Y
1691409215.6,286046999.9,P
1691409235.5,286046998.7,N
1691409255.3,286046998.5,N
1691409275.1,286046998.5,N
1691409295.9,286046998.4,N
1691409315.7,286046998.8,N
1691409335.5,286047001.1,N
1691409355.4,286046999.3,N
1691409375.2,286046996.8,N
1691409395.0,286046997.3,N
1691409395.9,286046997.3,N
1691409415.8,286046996.6,N
1691409435.6,286046999.3,N
1691409455.4,286046997.3,N
1691409475.3,286046998.3,N
1691409495.1,286046999.1,N
1691409515.8,286046996.6,N
1691409535.7,286046999.6,N
1691409555.5,286046998.7,N
1691409575.3,286047002.0,N
1691409595.2,286047000.4,N
